{"data":{"norad_id":53889,"intl_designator":"2022-119D","name":"STARLINK-5031","alt_names":[],"object_type":"PAYLOAD","status":"ACTIVE","operator":null,"country":"US","launch_date":"2022-09-24","launch_site_code":"AFETR","launch_vehicle":null,"mission":null,"orbit_class":"UNKNOWN","rcs_meters":null,"size_class":null,"mass_kg":null,"dimensions":null,"purposes":["comms"],"wikipedia_slug":null,"has_3d_model":false,"image_url":null,"decayed_at":null,"tle_current":{"epoch":"2026-05-24T22:33:37.770336Z","epoch_age_seconds":80374,"freshness":"FRESH","line1":"1 53889U 22119D   26144.94002049 -.00000810  00000+0 -32806-4 0  9996","line2":"2 53889  53.2156 341.9683 0001502  91.1295 268.9869 15.08829357203197","mean_motion":15.08829357,"eccentricity":0.0001502,"inclination_deg":53.2156,"raan_deg":341.9683,"arg_perigee_deg":91.1295,"mean_anomaly_deg":268.9869,"bstar":-3.2806e-5,"rev_number":20319,"period_min":95.438227876421,"perigee_km":538.73685002787,"apogee_km":540.8149910692,"semimajor_km":6917.9129205485,"source":"CELESTRAK","updated_at":"2026-05-25T13:38:17.581866Z"}}}